Idabel, OK

2:57 PM CDT on March 27, 2017 (GMT -0500)
Idabel

Weather History for K4O4 - January, 2012

Change the Weather History Date:

Monday, January 9, 2012

  Actual Average (KPRX) Record (KPRX)
Temperature  
Mean Temperature 47 °F -  
Max Temperature 50 °F 50 °F 73 °F (2009)
Min Temperature 44 °F 33 °F 21 °F (1999)
Degree Days  
Heating Degree Days 18    
Moisture  
Dew Point 43 °F    
Average Humidity 87    
Maximum Humidity 93    
Minimum Humidity 76    
Precipitation  
Precipitation 0.01 in - - ()
Sea Level Pressure  
Sea Level Pressure 30.12 in    
Wind  
Wind Speed 7 mph (NE)    
Max Wind Speed 13 mph    
Max Gust Speed 16 mph    
Visibility 8 miles    
Events      
Averages and records for this station are not official NWS values.
T = Trace of Precipitation, MM = Missing Value Source: NWS Daily Summary

Daily Weather History Graph

Daily Weather History Graph

Search for Another Location

Airport or City:

Trip Planner

Search our weather history database for the weather conditions in past years. The results will help you decide how hot, cold, wet, or windy it might be!

Date:

Astronomy

Jan. 09, 2012 Rise Set
Actual Time 7:25 AM CST 5:27 PM CST
Civil Twilight 6:57 AM CST 5:55 PM CST
Nautical Twilight 6:27 AM CST 6:26 PM CST
Astronomical Twilight 5:56 AM CST 6:56 PM CST
Moon 6:11 PM CST (1/9) 7:28 AM CST (1/9)
Length of Visible Light 10h 57m
Length of Day
10h 02m
Full, 100% of the Moon is Illuminated
Jan 9
Full
Jan 16
Last Quarter
Jan 23
New
Jan 30
First Quarter
Feb 7
Full

Hourly Weather History & Observations

Time (CST) Temp. Windchill Dew Point Humidity Pressure Visibility Wind Dir Wind Speed Gust Speed Precip Events Conditions
12:35 AM 46.4 °F 43.5 °F 42.8 °F 87% 30.15 in 7.0 mi NNE 5.8 mph - N/A   Clear
12:55 AM 46.4 °F 43.5 °F 42.8 °F 87% 30.14 in 7.0 mi NE 5.8 mph - N/A   Clear
1:15 AM 46.4 °F 43.5 °F 42.8 °F 87% 30.14 in 7.0 mi NE 5.8 mph - N/A   Scattered Clouds
1:35 AM 46.4 °F 43.5 °F 42.8 °F 87% 30.13 in 10.0 mi NE 5.8 mph - N/A   Scattered Clouds
1:55 AM 46.4 °F 42.9 °F 42.8 °F 87% 30.12 in 10.0 mi NE 6.9 mph - N/A   Scattered Clouds
2:15 AM 46.4 °F 42.9 °F 42.8 °F 87% 30.13 in 10.0 mi ENE 6.9 mph - N/A   Scattered Clouds
2:35 AM 46.4 °F 43.5 °F 42.8 °F 87% 30.12 in 7.0 mi ENE 5.8 mph - N/A   Mostly Cloudy
2:55 AM 44.6 °F 41.4 °F 42.8 °F 93% 30.12 in 7.0 mi NE 5.8 mph - N/A   Overcast
3:15 AM 44.6 °F 42.2 °F 42.8 °F 93% 30.11 in 7.0 mi NE 4.6 mph - N/A   Overcast
3:35 AM 44.6 °F 41.4 °F 42.8 °F 93% 30.16 in 7.0 mi NW 5.8 mph - N/A   Mostly Cloudy
3:55 AM 44.6 °F 41.4 °F 42.8 °F 93% 30.18 in 2.5 mi NW 5.8 mph - N/A   Mostly Cloudy
4:15 AM 44.6 °F 41.4 °F 42.8 °F 93% 30.17 in 4.0 mi NW 5.8 mph - N/A   Overcast
4:35 AM 44.6 °F 40.7 °F 42.8 °F 93% 30.16 in 2.5 mi NNW 6.9 mph - N/A   Overcast
4:55 AM 44.6 °F 42.2 °F 42.8 °F 93% 30.16 in 2.5 mi North 4.6 mph - N/A   Overcast
5:15 AM 44.6 °F 42.2 °F 42.8 °F 93% 30.15 in 4.0 mi North 4.6 mph - N/A   Overcast
5:35 AM 44.6 °F 42.2 °F 42.8 °F 93% 30.16 in 4.0 mi North 4.6 mph - N/A   Overcast
6:35 AM 44.6 °F 42.2 °F 42.8 °F 93% 30.17 in 5.0 mi NNE 4.6 mph - N/A   Mostly Cloudy
6:55 AM 44.6 °F 43.1 °F 42.8 °F 93% 30.18 in 5.0 mi East 3.5 mph - 0.01 in   Mostly Cloudy
7:15 AM 44.6 °F 40.2 °F 42.8 °F 93% 30.17 in 5.0 mi ESE 8.1 mph - N/A   Overcast
7:35 AM 44.6 °F 39.2 °F 42.8 °F 93% 30.15 in 5.0 mi ESE 10.4 mph - N/A   Overcast
7:55 AM 44.6 °F 38.8 °F 42.8 °F 93% 30.12 in 7.0 mi East 11.5 mph - N/A   Overcast
8:15 AM 44.6 °F 38.4 °F 42.8 °F 93% 30.10 in 7.0 mi East 12.7 mph - N/A   Mostly Cloudy
8:35 AM 44.6 °F 38.4 °F 42.8 °F 93% 30.10 in 5.0 mi North 12.7 mph - N/A   Scattered Clouds
8:55 AM 44.6 °F 38.8 °F 42.8 °F 93% 30.12 in 7.0 mi NNE 11.5 mph 16.1 mph N/A   Overcast
9:15 AM 44.6 °F 39.7 °F 42.8 °F 93% 30.13 in 7.0 mi NNE 9.2 mph - N/A   Overcast
9:35 AM 44.6 °F 40.7 °F 42.8 °F 93% 30.15 in 10.0 mi North 6.9 mph - N/A   Overcast
9:55 AM 44.6 °F 39.7 °F 42.8 °F 93% 30.15 in 10.0 mi NNE 9.2 mph - N/A   Overcast
10:35 AM 44.6 °F 40.7 °F 42.8 °F 93% 30.15 in 10.0 mi ENE 6.9 mph - N/A   Overcast
10:55 AM 46.4 °F 44.3 °F 42.8 °F 87% 30.17 in 10.0 mi NE 4.6 mph - N/A   Overcast
11:15 AM 46.4 °F 44.3 °F 44.6 °F 93% 30.15 in 10.0 mi ENE 4.6 mph - N/A   Overcast
12:15 PM 48.2 °F - 44.6 °F 87% 30.13 in 10.0 mi East 6.9 mph - N/A   Mostly Cloudy
12:35 PM 48.2 °F - 42.8 °F 82% 30.13 in 7.0 mi East 5.8 mph - N/A   Scattered Clouds
12:55 PM 48.2 °F - 44.6 °F 87% 30.12 in 7.0 mi NE 3.5 mph - N/A   Mostly Cloudy
1:15 PM 50.0 °F - 44.6 °F 82% 30.11 in 7.0 mi ENE 5.8 mph - N/A   Overcast
1:35 PM 50.0 °F - 44.6 °F 82% 30.10 in 7.0 mi East 8.1 mph - N/A   Mostly Cloudy
1:55 PM 50.0 °F - 44.6 °F 82% 30.10 in 10.0 mi ENE 6.9 mph - N/A   Mostly Cloudy
3:35 PM 50.0 °F - 44.6 °F 82% 30.10 in 7.0 mi Calm Calm - N/A   Overcast
3:55 PM 50.0 °F - 44.6 °F 82% 30.11 in 10.0 mi Calm Calm - N/A   Overcast
4:55 PM 50.0 °F - 46.4 °F 87% 30.09 in 10.0 mi North 3.5 mph - N/A   Overcast
5:35 PM 50.0 °F - 46.4 °F 87% 30.06 in 10.0 mi ENE 10.4 mph - N/A   Overcast
5:55 PM 50.0 °F - 44.6 °F 82% 30.06 in 10.0 mi ENE 10.4 mph - N/A   Overcast
6:15 PM 50.0 °F - 44.6 °F 82% 30.07 in 10.0 mi ENE 11.5 mph - N/A   Overcast
6:35 PM 50.0 °F - 42.8 °F 76% 30.08 in 10.0 mi ENE 8.1 mph - N/A   Overcast
6:55 PM 50.0 °F - 42.8 °F 76% 30.08 in 10.0 mi NE 8.1 mph - N/A   Overcast
7:15 PM 50.0 °F - 42.8 °F 76% 30.08 in 10.0 mi NE 10.4 mph - N/A   Overcast
7:35 PM 50.0 °F - 42.8 °F 76% 30.08 in 10.0 mi NE 8.1 mph - N/A   Overcast
7:55 PM 50.0 °F - 42.8 °F 76% 30.08 in 10.0 mi NE 6.9 mph - N/A   Overcast
8:15 PM 48.2 °F - 42.8 °F 82% 30.09 in 10.0 mi NE 4.6 mph - N/A   Overcast
8:55 PM 48.2 °F - 42.8 °F 82% 30.07 in 10.0 mi NE 8.1 mph - N/A   Overcast
9:15 PM 48.2 °F - 42.8 °F 82% 30.08 in 10.0 mi NE 8.1 mph - N/A   Overcast
9:35 PM 48.2 °F - 42.8 °F 82% 30.08 in 10.0 mi NE 6.9 mph - N/A   Overcast
10:35 PM 48.2 °F - 42.8 °F 82% 30.07 in 10.0 mi ENE 5.8 mph - N/A   Overcast
10:55 PM 48.2 °F - 42.8 °F 82% 30.07 in 10.0 mi ENE 8.1 mph - N/A   Overcast
11:15 PM 48.2 °F - 42.8 °F 82% 30.07 in 10.0 mi East 6.9 mph - N/A   Overcast
11:55 PM 46.4 °F 41.1 °F 42.8 °F 87% 30.05 in 5.0 mi ENE 11.5 mph - N/A   Overcast